Regional Weather Roundup
Issued by NWS

Home | Current Version | Previous Version | Graphics & Text | Print | Product List | Glossary On
Versions: 1 2 3 4 5 6 7 8 9 10 11 12 13 14 15 16 17 18 19 20 21 22 23 24 25 26 27 28 29 30 31 32 33 34 35 36 37 38 39 40 41 42 43 44 45 46 47 48 49 50
000
ASUS45 KPSR 061800
RWRAZ

ARIZONA HOURLY REGIONAL WEATHER ROUNDUP
NATIONAL WEATHER SERVICE PHOENIX AZ
1100 AM MST MON JUL 06 2015

NOTE: FAIR INDICATES FEW OR NO CLOUDS BELOW 12,000 FEET WITH NO
SIGNIFICANT WEATHER AND/OR OBSTRUCTIONS TO VISIBILITY.

AZZ001>003-036-061900-
NORTHWEST ARIZONA

CITY           SKY/WX    TMP DP  RH WIND       PRES   REMARKS
KINGMAN        PTSUNNY   85  53  33 SW14      30.13R
6HR MIN TEMP:  67; 6HR MAX TEMP:  86;

$$

AZZ004>008-015-016-018-061900-
NORTH CENTRAL ARIZONA

CITY           SKY/WX    TMP DP  RH WIND       PRES   REMARKS
GRAND CANYON   PTSUNNY   71  53  52 VRB6      30.32F
6HR MIN TEMP:  56; 6HR MAX TEMP:  71;

WILLIAMS       MOSUNNY   72  50  46 NW12      30.40S
PRESCOTT       MOSUNNY   80  52  37 NW10      30.23F
6HR MIN TEMP:  62; 6HR MAX TEMP:  80;

FLAGSTAFF      NOT AVBL
PAYSON         MOSUNNY   81  52  36 W10G17    30.25S
PAGE           CLOUDY    82  52  35 NW7       30.15R
6HR MIN TEMP:  76; 6HR MAX TEMP:  82; 6HR PCP: TRACE;

$$

AZZ009>014-017-061900-
NORTHEAST ARIZONA

CITY           SKY/WX    TMP DP  RH WIND       PRES   REMARKS
WINSLOW        NOT AVBL
SAINT JOHNS    SUNNY     80  49  33 W14       30.23F
6HR MIN TEMP:  64; 6HR MAX TEMP:  81;

WINDOW ROCK    SUNNY     79  48  33 W9        30.29S
6HR MIN TEMP:  57; 6HR MAX TEMP:  79;

$$

AZZ023-061900-
GREATER PHOENIX AREA

CITY           SKY/WX    TMP DP  RH WIND       PRES   REMARKS
PHOENIX        MOSUNNY   94  64  37 VRB6      29.96F
6HR MIN TEMP:  78; 6HR MAX TEMP:  94; 6HR PCP: TRACE;

GLENDALE       MOSUNNY   90  66  45 CALM      29.99F
LUKE AFB       SUNNY     93  64  38 VRB5      29.96F
DEER VALLEY    SUNNY     89  61  38 SW7       29.99S
6HR MIN TEMP:  77; 6HR MAX TEMP:  91; 6HR PCP: TRACE;

SCOTTSDALE     SUNNY     90  63  40 VRB5      30.00F
6HR MIN TEMP:  79; 6HR MAX TEMP:  91; 6HR PCP: TRACE;

MESA-FALCON    MOSUNNY   90  64  43 W6        29.99R
MESA-GATEWAY   MOSUNNY   91  64  40 SE6       30.01S
CHANDLER       MOSUNNY   91  64  40 S9        29.98F
$$

AZZ027-028-061900-
SOUTHWEST MARICOPA COUNTY AND PINAL COUNTY

CITY           SKY/WX    TMP DP  RH WIND       PRES   REMARKS
CASA GRANDE    SUNNY     90  66  45 CALM      29.99S
6HR MIN TEMP:  75; 6HR MAX TEMP:  90;

$$

AZZ503-504-507>509-061900-
SOUTHEAST ARIZONA

CITY           SKY/WX    TMP DP  RH WIND       PRES   REMARKS
TUCSON         SUNNY     91  62  37 CALM      30.08F
6HR MIN TEMP:  75; 6HR MAX TEMP:  91;

DAVIS-MONTHAN  SUNNY     85  64  48 CALM      30.07F
6HR MIN TEMP:  74; 6HR MAX TEMP:  86; 6HR PCP: TRACE;

RYAN FIELD     SUNNY     90  64  43 SW7       30.07F
NOGALES        SUNNY     86  60  41 MISG      30.16F
6HR MIN TEMP:  66; 6HR MAX TEMP:  86;

SAFFORD        SUNNY     89  61  38 NW17      30.05F
6HR MIN TEMP:  71; 6HR MAX TEMP:  89;

$$

AZZ020-021-025-026-031-061900-
SOUTHWEST ARIZONA

CITY           SKY/WX    TMP DP  RH WIND       PRES   REMARKS
YUMA           SUNNY     97  70  41 S12       29.90F HX 103
6HR MIN TEMP:  84; 6HR MAX TEMP:  97;

$$

CAZ031-033-041-043-047-048-061-061900-
SOUTHERN CALIFORNIA

CITY           SKY/WX    TMP DP  RH WIND       PRES   REMARKS
DOWNTOWN L.A.  CLOUDY    68  60  75 CALM      30.06S
6HR MIN TEMP:  64; 6HR MAX TEMP:  68;

L.A. AIRPORT   CLOUDY    65  60  84 SW5       30.07S
6HR MIN TEMP:  63; 6HR MAX TEMP:  65;

SAN DIEGO      CLOUDY    68  61  78 NW6       30.07S
6HR MIN TEMP:  66; 6HR MAX TEMP:  68;

BURBANK        CLOUDY    69  59  70 S7        30.05F
6HR MIN TEMP:  65; 6HR MAX TEMP:  69;

ONTARIO        MOSUNNY   73  58  59 SW9       30.05F
6HR MIN TEMP:  64; 6HR MAX TEMP:  73;

RIVERSIDE      PTSUNNY   71  60  68 SW3       30.06S
6HR MIN TEMP:  65; 6HR MAX TEMP:  71;

PALM SPRINGS   MOSUNNY   96  53  23 VRB3      29.94F
6HR MIN TEMP:  78; 6HR MAX TEMP:  96;

EL CENTRO NAS  MOSUNNY   93  65  39 VRB3      29.90S
6HR MIN TEMP:  77; 6HR MAX TEMP:  94;

IMPERIAL       SUNNY     94  68  42 VRB7      29.87F
6HR MIN TEMP:  80; 6HR MAX TEMP:  94;

BLYTHE         SUNNY     98  53  22 S13       29.91F
6HR MIN TEMP:  83; 6HR MAX TEMP:  99;

$$

NVZ020-UTZ003-061900-
SOUTHERN NEVADA-UTAH

CITY           SKY/WX    TMP DP  RH WIND       PRES   REMARKS
LAS VEGAS      NOT AVBL
SALT LAKE CITY PTSUNNY   84  58  40 N7        30.11S
6HR MIN TEMP:  69; 6HR MAX TEMP:  84;

$$

NMZ009-TXZ055-061900-
NEW MEXICO-WEST TEXAS

CITY           SKY/WX    TMP DP  RH WIND       PRES   REMARKS
ALBUQUERQUE    MOSUNNY   81  54  39 W7        30.17F
6HR MIN TEMP:  66; 6HR MAX TEMP:  82;

EL PASO        PTSUNNY   86  58  38 W9        30.08F
6HR MIN TEMP:  74; 6HR MAX TEMP:  87;

$$


........................KEY........................
SKY/WX - SKY CONDITION/WEATHER
TMP    - TEMPERATURE IN FAHRENHEIT
DP     - DEW POINT IN FAHRENHEIT
RH     - RELATIVE HUMIDITY IN PERCENT
WIND   - DIRECTION AND SPEED IN MILES PER HOUR (MPH)
VRB    - VARIABLE WIND DIRECTION
PRES   - MEAN SEA LEVEL PRESSURE IN INCHES OF MERCURY
         F - FALLING PRESSURE   R - RISING PRESSURE
         S - STEADY PRESSURE
VSB    - VISIBILITY IN MILES
HX     - HEAT INDEX IN FAHRENHEIT
WCI    - WIND CHILL INDEX IN FAHRENHEIT
TC     - TEMPERATURE IN CELSIUS WHICH IS ALSO KNOWN AS
         TEMPERATURE IN CENTIGRADE
AFB    - AIR FORCE BASE
         LUKE AFB IS LUKE AIR FORCE BASE
         DAVIS-MONTHAN IS DAVIS-MONTHAN AIR FORCE BASE
NAS    - NAVAL AIR STATION
         EL CENTRO NAS IS EL CENTRO NAVAL AIR STATION
N/A    - NOT AVAILABLE



USA.gov is the U.S. government's official web portal to all federal, state and local government web resources and services.